Time,TemperatureF,DewpointF,PressureIn,WindDirection,WindDirectionDegrees,WindSpeedMPH,WindSpeedGustMPH,Humidity,HourlyPrecipIn,Conditions,Clouds,dailyrainin,SoftwareType,DateUTC
2013-07-24 00:00:00,75.9,72.4,29.95,NNW,346,1.0,3.0,89,0.00,,,0.00,VWS V14.01,2013-07-23 22:00:00,
2013-07-24 00:01:00,75.8,72.3,29.95,NNW,346,1.0,3.0,89,0.00,,,0.00,VWS V14.01,2013-07-23 22:01:00,
2013-07-24 00:06:00,75.9,72.4,29.95,NNW,346,1.0,2.0,89,0.00,,,0.00,VWS V14.01,2013-07-23 22:06:00,
2013-07-24 00:10:00,75.9,72.4,29.95,NNW,346,1.0,2.0,89,0.00,,,0.00,VWS V14.01,2013-07-23 22:10:00,
2013-07-24 00:11:00,75.9,72.4,29.95,NNW,346,0.0,2.0,89,0.00,,,0.00,VWS V14.01,2013-07-23 22:11:00,
2013-07-24 00:16:00,76.0,72.9,29.95,NNW,346,3.0,3.0,90,0.00,,,0.00,VWS V14.01,2013-07-23 22:16:00,
2013-07-24 00:20:00,76.3,73.2,29.95,NNW,346,3.0,3.0,90,0.00,,,0.00,VWS V14.01,2013-07-23 22:20:00,
2013-07-24 00:21:00,76.2,73.1,29.95,NNW,346,1.0,3.0,90,0.00,,,0.00,VWS V14.01,2013-07-23 22:21:00,
2013-07-24 00:27:00,76.4,73.2,29.95,NNW,346,2.0,3.0,90,0.00,,,0.00,VWS V14.01,2013-07-23 22:27:00,
2013-07-24 00:30:00,76.5,73.3,29.95,NNW,346,0.0,3.0,90,0.00,,,0.00,VWS V14.01,2013-07-23 22:30:00,
2013-07-24 00:32:00,76.5,73.3,29.95,NNW,346,0.0,3.0,90,0.00,,,0.00,VWS V14.01,2013-07-23 22:32:00,
2013-07-24 00:37:00,76.4,73.2,29.95,NNW,346,0.0,1.0,90,0.00,,,0.00,VWS V14.01,2013-07-23 22:37:00,
2013-07-24 00:40:00,76.2,73.1,29.96,NNW,346,0.0,1.0,90,0.00,,,0.00,VWS V14.01,2013-07-23 22:40:00,
2013-07-24 00:42:00,76.2,72.7,29.96,NNW,346,0.0,1.0,89,0.00,,,0.00,VWS V14.01,2013-07-23 22:42:00,
2013-07-24 00:47:00,76.2,73.1,29.96,NNW,346,0.0,0.0,90,0.00,,,0.00,VWS V14.01,2013-07-23 22:47:00,
2013-07-24 00:50:00,75.7,72.6,29.96,NNW,346,3.0,4.0,90,0.00,,,0.00,VWS V14.01,2013-07-23 22:50:00,
2013-07-24 00:52:00,75.8,72.3,29.96,NNW,346,4.0,4.0,89,0.00,,,0.00,VWS V14.01,2013-07-23 22:52:00,
2013-07-24 00:58:00,75.8,72.7,29.96,NNW,346,2.0,3.0,90,0.00,,,0.00,VWS V14.01,2013-07-23 22:58:00,
2013-07-24 01:00:00,75.6,72.5,29.96,NNW,346,3.0,4.0,90,0.00,,,0.00,VWS V14.01,2013-07-23 23:00:00,
2013-07-24 01:03:00,75.6,72.5,29.95,NNW,346,2.0,4.0,90,0.00,,,0.00,VWS V14.01,2013-07-23 23:03:00,
2013-07-24 01:08:00,75.4,72.3,29.95,NNW,346,2.0,4.0,90,0.00,,,0.00,VWS V14.01,2013-07-23 23:08:00,
2013-07-24 01:10:00,75.2,72.1,29.95,NNW,346,3.0,4.0,90,0.00,,,0.00,VWS V14.01,2013-07-23 23:10:00,
2013-07-24 01:13:00,75.2,72.1,29.95,NNW,346,2.0,4.0,90,0.00,,,0.00,VWS V14.01,2013-07-23 23:13:00,
2013-07-24 01:18:00,75.3,72.5,29.95,NNW,346,3.0,4.0,91,0.00,,,0.00,VWS V14.01,2013-07-23 23:18:00,
2013-07-24 01:20:00,75.6,72.8,29.95,NNW,346,3.0,4.0,91,0.00,,,0.00,VWS V14.01,2013-07-23 23:20:00,
2013-07-24 01:23:00,75.5,72.7,29.95,NNW,346,3.0,4.0,91,0.00,,,0.00,VWS V14.01,2013-07-23 23:23:00,
2013-07-24 01:28:00,75.8,73.0,29.95,NNW,346,2.0,3.0,91,0.00,,,0.00,VWS V14.01,2013-07-23 23:28:00,
2013-07-24 01:30:00,75.6,72.8,29.94,NNW,346,3.0,3.0,91,0.00,,,0.00,VWS V14.01,2013-07-23 23:30:00,
2013-07-24 01:33:00,75.6,72.8,29.94,NNW,346,2.0,3.0,91,0.00,,,0.00,VWS V14.01,2013-07-23 23:33:00,
2013-07-24 01:38:00,75.7,72.9,29.95,NNW,346,0.0,3.0,91,0.00,,,0.00,VWS V14.01,2013-07-23 23:38:00,
2013-07-24 01:40:00,75.7,72.9,29.95,NNW,346,0.0,3.0,91,0.00,,,0.00,VWS V14.01,2013-07-23 23:40:00,
2013-07-24 01:43:00,75.7,72.9,29.95,NNW,346,0.0,3.0,91,0.00,,,0.00,VWS V14.01,2013-07-23 23:43:00,
2013-07-24 01:48:00,75.5,72.7,29.94,NNW,346,0.0,0.0,91,0.00,,,0.00,VWS V14.01,2013-07-23 23:48:00,
2013-07-24 01:50:00,75.0,72.2,29.95,NNW,346,0.0,2.0,91,0.00,,,0.00,VWS V14.01,2013-07-23 23:50:00,
2013-07-24 01:53:00,75.0,72.2,29.95,NNW,346,2.0,2.0,91,0.00,,,0.00,VWS V14.01,2013-07-23 23:53:00,
2013-07-24 01:58:00,75.1,72.3,29.95,NNW,346,0.0,1.0,91,0.00,,,0.00,VWS V14.01,2013-07-23 23:58:00,
2013-07-24 02:00:00,75.0,72.2,29.95,NNW,346,0.0,1.0,91,0.00,,,0.00,VWS V14.01,2013-07-24 00:00:00,
2013-07-24 02:03:00,74.9,72.1,29.95,NNW,346,0.0,1.0,91,0.00,,,0.00,VWS V14.01,2013-07-24 00:03:00,
2013-07-24 02:08:00,75.1,72.3,29.95,NNW,346,0.0,0.0,91,0.00,,,0.00,VWS V14.01,2013-07-24 00:08:00,
2013-07-24 02:10:00,75.0,72.5,29.95,NNW,346,1.0,2.0,92,0.00,,,0.00,VWS V14.01,2013-07-24 00:10:00,
2013-07-24 02:13:00,75.0,72.5,29.95,NNW,346,1.0,2.0,92,0.00,,,0.00,VWS V14.01,2013-07-24 00:13:00,
2013-07-24 02:18:00,75.2,72.7,29.94,NNW,346,1.0,2.0,92,0.00,,,0.00,VWS V14.01,2013-07-24 00:18:00,
2013-07-24 02:20:00,75.4,72.9,29.95,NNW,346,0.0,2.0,92,0.00,,,0.00,VWS V14.01,2013-07-24 00:20:00,
2013-07-24 02:24:00,75.4,72.9,29.95,NNW,346,0.0,2.0,92,0.00,,,0.00,VWS V14.01,2013-07-24 00:24:00,
2013-07-24 02:29:00,75.4,72.9,29.94,NNW,346,0.0,0.0,92,0.00,,,0.00,VWS V14.01,2013-07-24 00:29:00,
2013-07-24 02:30:00,75.3,72.8,29.94,NNW,346,0.0,1.0,92,0.00,,,0.00,VWS V14.01,2013-07-24 00:30:00,
2013-07-24 02:34:00,75.3,72.8,29.94,NNW,346,0.0,1.0,92,0.00,,,0.00,VWS V14.01,2013-07-24 00:34:00,
2013-07-24 02:39:00,75.1,72.6,29.94,NNW,346,0.0,0.0,92,0.00,,,0.00,VWS V14.01,2013-07-24 00:39:00,
2013-07-24 02:40:00,75.1,72.6,29.94,NNW,346,0.0,0.0,92,0.00,,,0.00,VWS V14.01,2013-07-24 00:40:00,
2013-07-24 02:44:00,75.1,72.6,29.94,NNW,346,0.0,0.0,92,0.00,,,0.00,VWS V14.01,2013-07-24 00:44:00,
2013-07-24 02:49:00,75.2,72.7,29.94,NNW,346,0.0,1.0,92,0.00,,,0.00,VWS V14.01,2013-07-24 00:49:00,
2013-07-24 02:50:00,75.3,72.8,29.95,NNW,346,0.0,1.0,92,0.00,,,0.00,VWS V14.01,2013-07-24 00:50:00,
2013-07-24 02:54:00,75.3,72.8,29.94,NNW,346,0.0,0.0,92,0.00,,,0.00,VWS V14.01,2013-07-24 00:54:00,
2013-07-24 02:59:00,75.2,72.7,29.95,NNW,346,0.0,0.0,92,0.00,,,0.00,VWS V14.01,2013-07-24 00:59:00,
2013-07-24 03:00:00,75.3,72.8,29.95,NNW,346,0.0,0.0,92,0.00,,,0.00,VWS V14.01,2013-07-24 01:00:00,
2013-07-24 03:04:00,75.3,72.8,29.95,NNW,346,0.0,0.0,92,0.00,,,0.00,VWS V14.01,2013-07-24 01:04:00,
2013-07-24 03:09:00,75.4,72.9,29.94,NNW,346,0.0,1.0,92,0.00,,,0.00,VWS V14.01,2013-07-24 01:09:00,
2013-07-24 03:10:00,75.2,72.7,29.94,NNW,346,0.0,1.0,92,0.00,,,0.00,VWS V14.01,2013-07-24 01:10:00,
2013-07-24 03:15:00,75.2,72.7,29.94,NNW,346,0.0,0.0,92,0.00,,,0.00,VWS V14.01,2013-07-24 01:15:00,
2013-07-24 03:20:00,75.2,72.7,29.94,NNW,346,0.0,1.0,92,0.00,,,0.00,VWS V14.01,2013-07-24 01:20:00,
2013-07-24 03:25:00,75.2,72.7,29.94,NNW,346,0.0,0.0,92,0.00,,,0.00,VWS V14.01,2013-07-24 01:25:00,
2013-07-24 03:30:00,75.2,72.7,29.94,NNW,346,0.0,0.0,92,0.00,,,0.00,VWS V14.01,2013-07-24 01:30:00,
2013-07-24 03:35:00,75.0,72.5,29.94,NNW,346,0.0,0.0,92,0.00,,,0.00,VWS V14.01,2013-07-24 01:35:00,
2013-07-24 03:40:00,75.0,72.5,29.94,NNW,346,0.0,0.0,92,0.00,,,0.00,VWS V14.01,2013-07-24 01:40:00,
2013-07-24 03:45:00,75.1,72.9,29.95,NNW,346,0.0,0.0,93,0.00,,,0.00,VWS V14.01,2013-07-24 01:45:00,
2013-07-24 03:50:00,75.1,72.9,29.94,NNW,346,0.0,0.0,93,0.00,,,0.00,VWS V14.01,2013-07-24 01:50:00,
2013-07-24 03:55:00,75.1,72.9,29.95,NNW,346,0.0,0.0,93,0.00,,,0.00,VWS V14.01,2013-07-24 01:55:00,
2013-07-24 04:00:00,75.1,72.9,29.95,NNW,346,0.0,0.0,93,0.00,,,0.00,VWS V14.01,2013-07-24 02:00:00,
2013-07-24 04:05:00,75.1,72.6,29.95,NNW,346,0.0,0.0,92,0.00,,,0.00,VWS V14.01,2013-07-24 02:05:00,
2013-07-24 04:10:00,75.1,72.9,29.94,NNW,346,0.0,0.0,93,0.00,,,0.00,VWS V14.01,2013-07-24 02:10:00,
2013-07-24 04:15:00,75.1,72.9,29.95,NNW,346,0.0,0.0,93,0.00,,,0.00,VWS V14.01,2013-07-24 02:15:00,
2013-07-24 04:20:00,75.1,72.9,29.94,NNW,346,0.0,0.0,93,0.00,,,0.00,VWS V14.01,2013-07-24 02:20:00,
2013-07-24 04:26:00,75.1,72.9,29.95,NNW,346,0.0,0.0,93,0.00,,,0.00,VWS V14.01,2013-07-24 02:26:00,
2013-07-24 04:30:00,75.2,72.7,29.95,NNW,346,0.0,0.0,92,0.00,,,0.00,VWS V14.01,2013-07-24 02:30:00,
2013-07-24 04:31:00,75.2,73.0,29.95,NNW,346,0.0,0.0,93,0.00,,,0.00,VWS V14.01,2013-07-24 02:31:00,
2013-07-24 04:36:00,75.2,72.7,29.95,NNW,346,0.0,0.0,92,0.00,,,0.00,VWS V14.01,2013-07-24 02:36:00,
2013-07-24 04:40:00,75.2,72.7,29.95,NNW,346,0.0,0.0,92,0.00,,,0.00,VWS V14.01,2013-07-24 02:40:00,
2013-07-24 04:41:00,75.2,72.7,29.95,NNW,346,0.0,0.0,92,0.00,,,0.00,VWS V14.01,2013-07-24 02:41:00,
2013-07-24 04:46:00,75.2,72.7,29.95,NNW,346,0.0,0.0,92,0.00,,,0.00,VWS V14.01,2013-07-24 02:46:00,
2013-07-24 04:50:00,75.3,72.8,29.95,NNW,346,0.0,0.0,92,0.00,,,0.00,VWS V14.01,2013-07-24 02:50:00,
2013-07-24 04:51:00,75.3,72.8,29.95,NNW,346,0.0,0.0,92,0.00,,,0.00,VWS V14.01,2013-07-24 02:51:00,
2013-07-24 04:57:00,75.4,72.9,29.95,NNW,346,0.0,0.0,92,0.00,,,0.00,VWS V14.01,2013-07-24 02:57:00,
2013-07-24 05:00:00,75.5,73.0,29.95,NNW,346,0.0,0.0,92,0.00,,,0.00,VWS V14.01,2013-07-24 03:00:00,
2013-07-24 05:02:00,75.4,72.9,29.95,NNW,346,0.0,0.0,92,0.00,,,0.00,VWS V14.01,2013-07-24 03:02:00,
2013-07-24 05:07:00,75.4,72.9,29.95,NNW,346,0.0,0.0,92,0.00,,,0.00,VWS V14.01,2013-07-24 03:07:00,
2013-07-24 05:10:00,75.3,72.8,29.96,NNW,346,0.0,0.0,92,0.00,,,0.00,VWS V14.01,2013-07-24 03:10:00,
2013-07-24 05:13:00,75.3,72.8,29.96,NNW,346,0.0,0.0,92,0.00,,,0.00,VWS V14.01,2013-07-24 03:13:00,
2013-07-24 05:18:00,75.3,72.8,29.96,NNW,346,0.0,0.0,92,0.00,,,0.00,VWS V14.01,2013-07-24 03:18:00,
2013-07-24 05:20:00,75.2,72.7,29.96,NNW,346,0.0,0.0,92,0.00,,,0.00,VWS V14.01,2013-07-24 03:20:00,
2013-07-24 05:23:00,75.2,72.7,29.96,NNW,346,0.0,0.0,92,0.00,,,0.00,VWS V14.01,2013-07-24 03:23:00,
2013-07-24 05:28:00,75.3,72.8,29.96,NNW,346,0.0,0.0,92,0.00,,,0.00,VWS V14.01,2013-07-24 03:28:00,
2013-07-24 05:30:00,75.2,72.7,29.97,NNW,346,0.0,0.0,92,0.00,,,0.00,VWS V14.01,2013-07-24 03:30:00,
2013-07-24 05:34:00,75.2,72.7,29.97,NNW,346,0.0,0.0,92,0.00,,,0.00,VWS V14.01,2013-07-24 03:34:00,
2013-07-24 05:39:00,75.3,72.8,29.97,NNW,346,0.0,3.0,92,0.00,,,0.00,VWS V14.01,2013-07-24 03:39:00,
2013-07-24 05:40:00,75.4,72.9,29.97,NNW,346,0.0,3.0,92,0.00,,,0.00,VWS V14.01,2013-07-24 03:40:00,
2013-07-24 05:44:00,75.4,72.9,29.97,NNW,346,0.0,0.0,92,0.00,,,0.00,VWS V14.01,2013-07-24 03:44:00,
2013-07-24 05:49:00,75.4,72.9,29.97,NNW,346,0.0,1.0,92,0.00,,,0.00,VWS V14.01,2013-07-24 03:49:00,
2013-07-24 05:50:00,75.4,72.9,29.97,NNW,346,0.0,1.0,92,0.00,,,0.00,VWS V14.01,2013-07-24 03:50:00,
2013-07-24 05:54:00,75.4,72.9,29.97,NNW,346,0.0,1.0,92,0.00,,,0.00,VWS V14.01,2013-07-24 03:54:00,
2013-07-24 05:59:00,75.4,72.6,29.97,NNW,346,1.0,2.0,91,0.00,,,0.00,VWS V14.01,2013-07-24 03:59:00,
2013-07-24 06:00:00,75.4,72.6,29.96,NNW,346,0.0,2.0,91,0.00,,,0.00,VWS V14.01,2013-07-24 04:00:00,
2013-07-24 06:01:00,75.4,72.6,29.97,NNW,346,0.0,2.0,91,0.00,,,0.00,VWS V14.01,2013-07-24 04:01:00,
2013-07-24 06:06:00,75.4,72.6,29.97,NNW,346,0.0,1.0,91,0.00,,,0.00,VWS V14.01,2013-07-24 04:06:00,
2013-07-24 06:10:00,75.5,73.0,29.97,NNW,346,2.0,2.0,92,0.00,,,0.00,VWS V14.01,2013-07-24 04:10:00,
2013-07-24 06:12:00,75.5,73.0,29.97,NNW,346,0.0,1.0,92,0.00,,,0.00,VWS V14.01,2013-07-24 04:12:00,
2013-07-24 06:17:00,75.6,73.1,29.97,NNW,346,0.0,2.0,92,0.00,,,0.00,VWS V14.01,2013-07-24 04:17:00,
2013-07-24 06:20:00,75.7,73.2,29.97,NNW,346,0.0,2.0,92,0.00,,,0.00,VWS V14.01,2013-07-24 04:20:00,
2013-07-24 06:22:00,75.6,73.1,29.97,NNW,346,0.0,2.0,92,0.00,,,0.00,VWS V14.01,2013-07-24 04:22:00,
2013-07-24 06:27:00,75.7,73.2,29.97,NNW,346,0.0,0.0,92,0.00,,,0.00,VWS V14.01,2013-07-24 04:27:00,
2013-07-24 06:30:00,75.7,73.2,29.97,NNW,346,0.0,1.0,92,0.00,,,0.00,VWS V14.01,2013-07-24 04:30:00,
2013-07-24 06:32:00,75.7,73.2,29.97,NNW,346,0.0,1.0,92,0.00,,,0.00,VWS V14.01,2013-07-24 04:32:00,
2013-07-24 06:37:00,75.7,73.2,29.97,NNW,346,1.0,3.0,92,0.00,,,0.00,VWS V14.01,2013-07-24 04:37:00,
2013-07-24 06:40:00,75.9,73.4,29.97,NNW,346,1.0,3.0,92,0.00,,,0.00,VWS V14.01,2013-07-24 04:40:00,
2013-07-24 06:42:00,75.8,73.3,29.97,NNW,346,0.0,3.0,92,0.00,,,0.00,VWS V14.01,2013-07-24 04:42:00,
2013-07-24 06:47:00,75.9,73.4,29.97,NNW,346,2.0,2.0,92,0.00,,,0.00,VWS V14.01,2013-07-24 04:47:00,
2013-07-24 06:50:00,76.0,73.5,29.97,NNW,346,0.0,3.0,92,0.00,,,0.00,VWS V14.01,2013-07-24 04:50:00,
2013-07-24 06:52:00,75.9,73.4,29.97,NNW,346,1.0,3.0,92,0.00,,,0.00,VWS V14.01,2013-07-24 04:52:00,
2013-07-24 06:57:00,76.1,73.6,29.98,NNW,346,1.0,1.0,92,0.00,,,0.00,VWS V14.01,2013-07-24 04:57:00,
2013-07-24 07:00:00,76.3,73.8,29.98,NNW,346,2.0,2.0,92,0.00,,,0.00,VWS V14.01,2013-07-24 05:00:00,
2013-07-24 07:02:00,76.2,73.7,29.98,NNW,346,0.0,1.0,92,0.00,,,0.00,VWS V14.01,2013-07-24 05:02:00,
2013-07-24 07:07:00,76.4,73.9,29.98,ENE,77,2.0,3.0,92,0.00,,,0.00,VWS V14.01,2013-07-24 05:07:00,
2013-07-24 07:10:00,76.6,73.8,29.98,East,86,2.0,5.0,91,0.00,,,0.00,VWS V14.01,2013-07-24 05:10:00,
2013-07-24 07:12:00,76.5,74.0,29.98,East,82,0.0,5.0,92,0.00,,,0.00,VWS V14.01,2013-07-24 05:12:00,
2013-07-24 07:17:00,76.7,73.9,29.98,ESE,103,2.0,3.0,91,0.00,,,0.00,VWS V14.01,2013-07-24 05:17:00,
2013-07-24 07:20:00,76.5,73.7,29.98,SE,128,1.0,5.0,91,0.00,,,0.00,VWS V14.01,2013-07-24 05:20:00,
2013-07-24 07:22:00,76.5,73.7,29.98,SE,130,5.0,5.0,91,0.00,,,0.00,VWS V14.01,2013-07-24 05:22:00,
2013-07-24 07:27:00,76.5,73.7,29.98,SE,136,4.0,4.0,91,0.00,,,0.00,VWS V14.01,2013-07-24 05:27:00,
2013-07-24 07:30:00,76.6,73.8,29.98,SE,136,4.0,5.0,91,0.00,,,0.00,VWS V14.01,2013-07-24 05:30:00,
2013-07-24 07:32:00,76.5,73.7,29.98,SE,137,3.0,5.0,91,0.00,,,0.00,VWS V14.01,2013-07-24 05:32:00,
2013-07-24 07:37:00,76.7,73.9,29.98,SE,141,5.0,5.0,91,0.00,,,0.00,VWS V14.01,2013-07-24 05:37:00,
2013-07-24 07:40:00,76.7,73.9,29.98,SSE,158,6.0,9.0,91,0.00,,,0.00,VWS V14.01,2013-07-24 05:40:00,
2013-07-24 07:42:00,76.7,73.9,29.99,SSE,159,4.0,9.0,91,0.00,,,0.00,VWS V14.01,2013-07-24 05:42:00,
2013-07-24 07:47:00,76.5,73.7,29.99,SE,146,3.0,8.0,91,0.00,,,0.00,VWS V14.01,2013-07-24 05:47:00,
2013-07-24 07:50:00,76.7,73.9,29.99,South,172,5.0,8.0,91,0.00,,,0.00,VWS V14.01,2013-07-24 05:50:00,
2013-07-24 07:52:00,76.7,73.9,29.99,SSE,168,4.0,8.0,91,0.00,,,0.00,VWS V14.01,2013-07-24 05:52:00,
2013-07-24 07:57:00,76.5,73.7,29.99,SSE,154,5.0,9.0,91,0.00,,,0.00,VWS V14.01,2013-07-24 05:57:00,
2013-07-24 08:00:00,76.4,73.6,29.99,SE,143,4.0,9.0,91,0.00,,,0.00,VWS V14.01,2013-07-24 06:00:00,
2013-07-24 08:02:00,76.3,73.5,29.99,SSE,147,3.0,9.0,91,0.00,,,0.00,VWS V14.01,2013-07-24 06:02:00,
2013-07-24 08:07:00,76.4,73.2,29.99,SE,144,6.0,7.0,90,0.00,,,0.00,VWS V14.01,2013-07-24 06:07:00,
2013-07-24 08:10:00,76.6,73.4,29.99,SSE,148,2.0,7.0,90,0.00,,,0.00,VWS V14.01,2013-07-24 06:10:00,
2013-07-24 08:12:00,76.4,73.2,29.99,SSE,148,5.0,7.0,90,0.00,,,0.00,VWS V14.01,2013-07-24 06:12:00,
2013-07-24 08:17:00,76.8,73.3,29.99,SSE,151,1.0,6.0,89,0.00,,,0.00,VWS V14.01,2013-07-24 06:17:00,
2013-07-24 08:20:00,76.8,73.3,29.99,SE,146,3.0,7.0,89,0.00,,,0.00,VWS V14.01,2013-07-24 06:20:00,
2013-07-24 08:22:00,76.8,73.3,29.99,SE,139,1.0,7.0,89,0.00,,,0.00,VWS V14.01,2013-07-24 06:22:00,
2013-07-24 08:27:00,76.9,73.4,29.99,SE,145,1.0,5.0,89,0.00,,,0.00,VWS V14.01,2013-07-24 06:27:00,
2013-07-24 08:30:00,76.9,73.1,30.00,SSE,149,5.0,6.0,88,0.00,,,0.00,VWS V14.01,2013-07-24 06:30:00,
2013-07-24 08:32:00,77.0,73.2,30.00,SSE,159,6.0,6.0,88,0.00,,,0.00,VWS V14.01,2013-07-24 06:32:00,
2013-07-24 08:37:00,77.1,73.3,30.00,SE,146,3.0,6.0,88,0.00,,,0.00,VWS V14.01,2013-07-24 06:37:00,
2013-07-24 08:40:00,77.0,72.8,30.00,SSE,155,6.0,7.0,87,0.00,,,0.00,VWS V14.01,2013-07-24 06:40:00,
2013-07-24 08:42:00,77.2,73.0,30.00,SSE,155,6.0,6.0,87,0.00,,,0.00,VWS V14.01,2013-07-24 06:42:00,
2013-07-24 08:47:00,77.0,72.8,30.00,SSE,153,5.0,7.0,87,0.00,,,0.00,VWS V14.01,2013-07-24 06:47:00,
2013-07-24 08:50:00,77.3,73.1,30.00,SSE,163,4.0,7.0,87,0.00,,,0.00,VWS V14.01,2013-07-24 06:50:00,
2013-07-24 08:52:00,77.2,73.0,30.00,SSE,165,2.0,7.0,87,0.00,,,0.00,VWS V14.01,2013-07-24 06:52:00,
2013-07-24 08:57:00,77.4,72.9,30.00,SSE,162,5.0,8.0,86,0.00,,,0.00,VWS V14.01,2013-07-24 06:57:00,
2013-07-24 09:00:00,77.4,72.5,30.00,South,178,5.0,8.0,85,0.00,,,0.00,VWS V14.01,2013-07-24 07:00:00,
2013-07-24 09:02:00,77.4,72.5,30.00,SSE,157,7.0,8.0,85,0.00,,,0.00,VWS V14.01,2013-07-24 07:02:00,
2013-07-24 09:07:00,77.6,72.7,30.00,South,174,5.0,6.0,85,0.00,,,0.00,VWS V14.01,2013-07-24 07:07:00,
2013-07-24 09:10:00,78.1,72.9,30.00,South,174,6.0,7.0,84,0.00,,,0.00,VWS V14.01,2013-07-24 07:10:00,
2013-07-24 09:12:00,78.1,72.9,30.00,SSE,168,6.0,6.0,84,0.00,,,0.00,VWS V14.01,2013-07-24 07:12:00,
2013-07-24 09:17:00,78.2,72.6,30.00,South,180,4.0,9.0,83,0.00,,,0.00,VWS V14.01,2013-07-24 07:17:00,
2013-07-24 09:20:00,78.6,73.0,30.00,SSE,159,6.0,9.0,83,0.00,,,0.00,VWS V14.01,2013-07-24 07:20:00,
2013-07-24 09:22:00,78.7,73.1,30.00,SE,132,4.0,9.0,83,0.00,,,0.00,VWS V14.01,2013-07-24 07:22:00,
2013-07-24 09:27:00,78.3,72.7,30.00,SE,142,6.0,7.0,83,0.00,,,0.00,VWS V14.01,2013-07-24 07:27:00,
2013-07-24 09:30:00,78.5,72.9,30.00,South,178,3.0,9.0,83,0.00,,,0.00,VWS V14.01,2013-07-24 07:30:00,
2013-07-24 09:32:00,78.6,73.0,30.00,South,175,6.0,9.0,83,0.00,,,0.00,VWS V14.01,2013-07-24 07:32:00,
2013-07-24 09:37:00,78.5,72.9,30.00,SSW,194,7.0,8.0,83,0.00,,,0.00,VWS V14.01,2013-07-24 07:37:00,
2013-07-24 09:40:00,78.4,72.4,30.00,SSE,153,3.0,8.0,82,0.00,,,0.00,VWS V14.01,2013-07-24 07:40:00,
2013-07-24 09:42:00,78.6,73.0,30.00,South,186,7.0,8.0,83,0.00,,,0.00,VWS V14.01,2013-07-24 07:42:00,
2013-07-24 09:47:00,78.4,72.8,30.00,SSE,157,5.0,7.0,83,0.00,,,0.00,VWS V14.01,2013-07-24 07:47:00,
2013-07-24 09:50:00,78.4,72.4,30.00,South,182,5.0,9.0,82,0.00,,,0.00,VWS V14.01,2013-07-24 07:50:00,
2013-07-24 09:52:00,78.5,72.9,30.00,South,184,9.0,9.0,83,0.00,,,0.00,VWS V14.01,2013-07-24 07:52:00,
2013-07-24 09:57:00,78.4,72.4,30.00,SSE,159,4.0,9.0,82,0.00,,,0.00,VWS V14.01,2013-07-24 07:57:00,
2013-07-24 10:00:00,78.6,72.7,30.01,SSE,162,3.0,9.0,82,0.00,,,0.00,VWS V14.01,2013-07-24 08:00:00,
2013-07-24 10:02:00,78.5,72.6,30.01,SSE,152,5.0,9.0,82,0.00,,,0.00,VWS V14.01,2013-07-24 08:02:00,
2013-07-24 10:07:00,78.7,72.8,30.01,South,180,5.0,9.0,82,0.00,,,0.00,VWS V14.01,2013-07-24 08:07:00,
2013-07-24 10:10:00,78.5,72.6,30.01,ESE,123,7.0,9.0,82,0.00,,,0.00,VWS V14.01,2013-07-24 08:10:00,
2013-07-24 10:12:00,78.7,72.8,30.01,South,190,9.0,9.0,82,0.00,,,0.00,VWS V14.01,2013-07-24 08:12:00,
2013-07-24 10:17:00,78.9,72.9,30.01,SSE,160,5.0,7.0,82,0.00,,,0.00,VWS V14.01,2013-07-24 08:17:00,
2013-07-24 10:20:00,79.1,72.8,30.01,South,189,4.0,7.0,81,0.00,,,0.00,VWS V14.01,2013-07-24 08:20:00,
2013-07-24 10:22:00,79.1,72.8,30.01,South,182,4.0,7.0,81,0.00,,,0.00,VWS V14.01,2013-07-24 08:22:00,
2013-07-24 10:27:00,79.1,72.8,30.01,SSE,166,1.0,9.0,81,0.00,,,0.00,VWS V14.01,2013-07-24 08:27:00,
2013-07-24 10:30:00,79.7,73.0,30.00,SSE,168,5.0,9.0,80,0.00,,,0.00,VWS V14.01,2013-07-24 08:30:00,
2013-07-24 10:32:00,79.6,72.9,30.00,South,175,2.0,9.0,80,0.00,,,0.00,VWS V14.01,2013-07-24 08:32:00,
2013-07-24 10:37:00,79.8,73.1,30.00,SSE,148,3.0,8.0,80,0.00,,,0.00,VWS V14.01,2013-07-24 08:37:00,
2013-07-24 10:40:00,79.9,73.2,30.00,South,176,8.0,8.0,80,0.00,,,0.00,VWS V14.01,2013-07-24 08:40:00,
2013-07-24 10:42:00,79.7,72.6,30.00,SE,136,2.0,8.0,79,0.00,,,0.00,VWS V14.01,2013-07-24 08:42:00,
2013-07-24 10:47:00,79.7,72.6,30.00,SSW,210,4.0,9.0,79,0.00,,,0.00,VWS V14.01,2013-07-24 08:47:00,
2013-07-24 10:50:00,79.7,72.2,30.00,SE,144,0.0,9.0,78,0.00,,,0.00,VWS V14.01,2013-07-24 08:50:00,
2013-07-24 10:52:00,79.7,72.6,30.00,South,188,2.0,9.0,79,0.00,,,0.00,VWS V14.01,2013-07-24 08:52:00,
2013-07-24 10:57:00,80.0,72.9,30.00,SSE,166,1.0,6.0,79,0.00,,,0.00,VWS V14.01,2013-07-24 08:57:00,
2013-07-24 11:00:00,79.5,72.0,30.00,South,171,7.0,8.0,78,0.00,,,0.00,VWS V14.01,2013-07-24 09:00:00,
2013-07-24 11:02:00,80.1,72.2,30.00,SSW,201,5.0,7.0,77,0.00,,,0.00,VWS V14.01,2013-07-24 09:02:00,
2013-07-24 11:07:00,79.3,71.8,30.00,South,191,5.0,8.0,78,0.00,,,0.00,VWS V14.01,2013-07-24 09:07:00,
2013-07-24 11:10:00,79.2,72.1,30.00,SSW,196,3.0,9.0,79,0.00,,,0.00,VWS V14.01,2013-07-24 09:10:00,
2013-07-24 11:12:00,79.4,72.3,30.00,SSE,160,6.0,9.0,79,0.00,,,0.00,VWS V14.01,2013-07-24 09:12:00,
2013-07-24 11:17:00,79.3,72.6,30.00,SSW,207,7.0,10.0,80,0.00,,,0.00,VWS V14.01,2013-07-24 09:17:00,
2013-07-24 11:20:00,79.8,72.7,30.00,SE,142,6.0,10.0,79,0.00,,,0.00,VWS V14.01,2013-07-24 09:20:00,
2013-07-24 11:22:00,79.6,72.5,30.00,SE,143,4.0,10.0,79,0.00,,,0.00,VWS V14.01,2013-07-24 09:22:00,
2013-07-24 11:27:00,79.7,72.2,30.00,SSE,157,3.0,11.0,78,0.00,,,0.00,VWS V14.01,2013-07-24 09:27:00,
2013-07-24 11:30:00,79.9,72.4,30.00,SSW,194,4.0,11.0,78,0.00,,,0.00,VWS V14.01,2013-07-24 09:30:00,
2013-07-24 11:32:00,79.7,72.2,30.00,SSE,160,4.0,11.0,78,0.00,,,0.00,VWS V14.01,2013-07-24 09:32:00,
2013-07-24 11:37:00,80.1,72.6,30.00,SSW,207,7.0,8.0,78,0.00,,,0.00,VWS V14.01,2013-07-24 09:37:00,
2013-07-24 11:40:00,80.4,72.5,30.01,SSW,213,4.0,8.0,77,0.00,,,0.00,VWS V14.01,2013-07-24 09:40:00,
2013-07-24 11:42:00,80.3,72.8,30.00,SW,223,2.0,8.0,78,0.00,,,0.00,VWS V14.01,2013-07-24 09:42:00,
2013-07-24 11:47:00,79.8,71.9,30.00,SSE,163,1.0,9.0,77,0.00,,,0.00,VWS V14.01,2013-07-24 09:47:00,
2013-07-24 11:50:00,80.2,72.3,30.00,SSE,153,3.0,9.0,77,0.00,,,0.00,VWS V14.01,2013-07-24 09:50:00,
2013-07-24 11:52:00,80.3,72.8,30.01,South,175,7.0,9.0,78,0.00,,,0.00,VWS V14.01,2013-07-24 09:52:00,
2013-07-24 11:57:00,80.0,72.2,30.00,SSW,202,5.0,10.0,77,0.00,,,0.00,VWS V14.01,2013-07-24 09:57:00,
2013-07-24 12:00:00,80.1,72.6,30.00,WSW,239,4.0,10.0,78,0.00,,,0.00,VWS V14.01,2013-07-24 10:00:00,
2013-07-24 12:02:00,80.1,72.2,30.00,South,174,8.0,10.0,77,0.00,,,0.00,VWS V14.01,2013-07-24 10:02:00,
2013-07-24 12:07:00,79.8,71.9,30.01,SW,217,5.0,10.0,77,0.00,,,0.00,VWS V14.01,2013-07-24 10:07:00,
2013-07-24 12:10:00,78.9,71.8,30.00,SW,218,12.0,12.0,79,0.00,,,0.00,VWS V14.01,2013-07-24 10:10:00,
2013-07-24 12:12:00,79.0,71.9,30.00,SW,225,7.0,10.0,79,0.00,,,0.00,VWS V14.01,2013-07-24 10:12:00,
2013-07-24 12:17:00,79.0,71.9,30.00,South,186,8.0,12.0,79,0.00,,,0.00,VWS V14.01,2013-07-24 10:17:00,
2013-07-24 12:20:00,79.8,72.7,30.00,South,170,4.0,12.0,79,0.00,,,0.00,VWS V14.01,2013-07-24 10:20:00,
2013-07-24 12:22:00,79.7,72.6,30.00,WSW,243,8.0,12.0,79,0.00,,,0.00,VWS V14.01,2013-07-24 10:22:00,
2013-07-24 12:27:00,79.7,72.2,30.00,SSW,192,4.0,10.0,78,0.00,,,0.00,VWS V14.01,2013-07-24 10:27:00,
2013-07-24 12:30:00,79.8,72.3,30.00,SW,223,4.0,10.0,78,0.00,,,0.00,VWS V14.01,2013-07-24 10:30:00,
2013-07-24 12:32:00,79.7,72.2,30.00,South,184,7.0,10.0,78,0.00,,,0.00,VWS V14.01,2013-07-24 10:32:00,
2013-07-24 12:37:00,80.2,73.1,30.00,South,169,6.0,9.0,79,0.00,,,0.00,VWS V14.01,2013-07-24 10:37:00,
2013-07-24 12:40:00,79.5,72.4,30.00,SSW,207,6.0,12.0,79,0.00,,,0.00,VWS V14.01,2013-07-24 10:40:00,
2013-07-24 12:42:00,79.7,72.2,30.00,SW,215,10.0,12.0,78,0.00,,,0.00,VWS V14.01,2013-07-24 10:42:00,
2013-07-24 12:47:00,79.3,72.6,30.00,SSW,209,8.0,11.0,80,0.00,,,0.00,VWS V14.01,2013-07-24 10:47:00,
2013-07-24 12:50:00,79.8,73.1,30.01,SW,221,10.0,11.0,80,0.00,,,0.00,VWS V14.01,2013-07-24 10:50:00,
2013-07-24 12:52:00,79.6,72.9,30.01,SW,235,5.0,11.0,80,0.00,,,0.00,VWS V14.01,2013-07-24 10:52:00,
2013-07-24 12:57:00,79.4,72.7,30.01,South,191,9.0,11.0,80,0.00,,,0.00,VWS V14.01,2013-07-24 10:57:00,
2013-07-24 13:00:00,79.6,73.3,30.01,SW,225,3.0,12.0,81,0.00,,,0.00,VWS V14.01,2013-07-24 11:00:00,
2013-07-24 13:02:00,79.3,73.0,30.01,South,183,8.0,12.0,81,0.00,,,0.00,VWS V14.01,2013-07-24 11:02:00,
2013-07-24 13:07:00,79.9,73.2,30.01,SW,218,10.0,12.0,80,0.00,,,0.00,VWS V14.01,2013-07-24 11:07:00,
2013-07-24 13:10:00,80.2,73.8,30.01,SW,221,9.0,12.0,81,0.00,,,0.00,VWS V14.01,2013-07-24 11:10:00,
2013-07-24 13:12:00,79.9,73.6,30.01,South,178,6.0,12.0,81,0.00,,,0.00,VWS V14.01,2013-07-24 11:12:00,
2013-07-24 13:17:00,80.1,73.4,30.01,SW,215,3.0,12.0,80,0.00,,,0.00,VWS V14.01,2013-07-24 11:17:00,
2013-07-24 13:20:00,80.1,73.8,30.01,SW,225,9.0,13.0,81,0.00,,,0.00,VWS V14.01,2013-07-24 11:20:00,
2013-07-24 13:22:00,80.1,73.4,30.01,WSW,238,7.0,13.0,80,0.00,,,0.00,VWS V14.01,2013-07-24 11:22:00,
2013-07-24 13:27:00,80.6,73.9,30.01,SSW,208,5.0,10.0,80,0.00,,,0.00,VWS V14.01,2013-07-24 11:27:00,
2013-07-24 13:30:00,80.1,73.8,30.01,SSW,212,7.0,14.0,81,0.00,,,0.00,VWS V14.01,2013-07-24 11:30:00,
2013-07-24 13:32:00,79.9,73.6,30.01,SSW,210,8.0,14.0,81,0.00,,,0.00,VWS V14.01,2013-07-24 11:32:00,
2013-07-24 13:38:00,79.9,73.2,30.00,SSW,198,9.0,13.0,80,0.00,,,0.00,VWS V14.01,2013-07-24 11:38:00,
2013-07-24 13:40:00,79.5,73.5,30.00,SSW,198,9.0,14.0,82,0.00,,,0.00,VWS V14.01,2013-07-24 11:40:00,
2013-07-24 13:43:00,79.3,73.3,30.00,SW,221,9.0,14.0,82,0.00,,,0.00,VWS V14.01,2013-07-24 11:43:00,
2013-07-24 13:48:00,79.3,73.3,30.00,SW,224,9.0,12.0,82,0.00,,,0.00,VWS V14.01,2013-07-24 11:48:00,
2013-07-24 13:50:00,79.9,73.9,30.00,SSW,202,5.0,12.0,82,0.00,,,0.00,VWS V14.01,2013-07-24 11:50:00,
2013-07-24 13:53:00,79.8,73.8,30.00,SW,229,9.0,12.0,82,0.00,,,0.00,VWS V14.01,2013-07-24 11:53:00,
2013-07-24 13:58:00,80.1,73.8,30.00,SSW,205,7.0,14.0,81,0.00,,,0.00,VWS V14.01,2013-07-24 11:58:00,
2013-07-24 14:00:00,80.5,74.1,30.00,SW,232,6.0,14.0,81,0.00,,,0.00,VWS V14.01,2013-07-24 12:00:00,
2013-07-24 14:03:00,80.5,74.1,30.00,WSW,237,10.0,14.0,81,0.00,,,0.00,VWS V14.01,2013-07-24 12:03:00,
2013-07-24 14:08:00,80.3,73.9,30.00,West,261,6.0,12.0,81,0.00,,,0.00,VWS V14.01,2013-07-24 12:08:00,
2013-07-24 14:10:00,80.2,74.2,30.00,SW,226,9.0,12.0,82,0.00,,,0.00,VWS V14.01,2013-07-24 12:10:00,
2013-07-24 14:13:00,79.9,73.6,30.00,SW,232,6.0,12.0,81,0.00,,,0.00,VWS V14.01,2013-07-24 12:13:00,
2013-07-24 14:18:00,80.3,73.9,30.00,SSW,209,6.0,12.0,81,0.00,,,0.00,VWS V14.01,2013-07-24 12:18:00,
2013-07-24 14:20:00,80.7,74.3,30.00,SW,229,9.0,12.0,81,0.00,,,0.00,VWS V14.01,2013-07-24 12:20:00,
2013-07-24 14:23:00,80.6,74.2,30.00,South,182,2.0,12.0,81,0.00,,,0.00,VWS V14.01,2013-07-24 12:23:00,
2013-07-24 14:28:00,80.6,74.2,30.00,WSW,251,7.0,11.0,81,0.00,,,0.00,VWS V14.01,2013-07-24 12:28:00,
2013-07-24 14:30:00,81.2,74.8,30.00,WSW,253,6.0,11.0,81,0.00,,,0.00,VWS V14.01,2013-07-24 12:30:00,
2013-07-24 14:33:00,81.1,74.7,30.00,WSW,243,6.0,11.0,81,0.00,,,0.00,VWS V14.01,2013-07-24 12:33:00,
2013-07-24 14:38:00,81.1,74.7,30.00,WSW,237,11.0,11.0,81,0.00,,,0.00,VWS V14.01,2013-07-24 12:38:00,
2013-07-24 14:40:00,80.7,74.3,30.00,SW,234,11.0,12.0,81,0.00,,,0.00,VWS V14.01,2013-07-24 12:40:00,
2013-07-24 14:43:00,80.9,74.5,30.00,SW,223,11.0,12.0,81,0.00,,,0.00,VWS V14.01,2013-07-24 12:43:00,
2013-07-24 14:48:00,80.5,74.1,30.00,WSW,249,8.0,11.0,81,0.00,,,0.00,VWS V14.01,2013-07-24 12:48:00,
2013-07-24 14:50:00,80.0,74.0,30.00,WSW,250,8.0,11.0,82,0.00,,,0.00,VWS V14.01,2013-07-24 12:50:00,
2013-07-24 14:53:00,80.1,74.1,30.00,West,277,7.0,11.0,82,0.00,,,0.00,VWS V14.01,2013-07-24 12:53:00,
2013-07-24 14:58:00,79.5,73.9,30.00,SW,219,10.0,11.0,83,0.00,,,0.00,VWS V14.01,2013-07-24 12:58:00,
2013-07-24 15:00:00,80.4,75.1,30.00,SW,234,10.0,12.0,84,0.00,,,0.00,VWS V14.01,2013-07-24 13:00:00,
2013-07-24 15:03:00,79.8,74.2,30.00,SSW,199,6.0,12.0,83,0.00,,,0.00,VWS V14.01,2013-07-24 13:03:00,
2013-07-24 15:08:00,80.0,74.4,30.00,SW,232,7.0,13.0,83,0.00,,,0.00,VWS V14.01,2013-07-24 13:08:00,
2013-07-24 15:10:00,80.7,74.3,30.00,WSW,250,6.0,13.0,81,0.00,,,0.00,VWS V14.01,2013-07-24 13:10:00,
2013-07-24 15:13:00,80.7,74.3,30.00,SW,218,9.0,13.0,81,0.00,,,0.00,VWS V14.01,2013-07-24 13:13:00,
2013-07-24 15:18:00,81.5,74.7,30.00,West,263,3.0,12.0,80,0.00,,,0.00,VWS V14.01,2013-07-24 13:18:00,
2013-07-24 15:20:00,82.1,74.2,30.00,WSW,244,7.0,12.0,77,0.00,,,0.00,VWS V14.01,2013-07-24 13:20:00,
2013-07-24 15:23:00,82.1,74.2,30.00,WSW,257,9.0,12.0,77,0.00,,,0.00,VWS V14.01,2013-07-24 13:23:00,
2013-07-24 15:28:00,82.4,74.1,30.00,SW,215,11.0,11.0,76,0.00,,,0.00,VWS V14.01,2013-07-24 13:28:00,
2013-07-24 15:30:00,81.0,74.2,30.00,SW,215,9.0,13.0,80,0.00,,,0.00,VWS V14.01,2013-07-24 13:30:00,
2013-07-24 15:33:00,81.1,74.0,30.00,SSW,212,8.0,13.0,79,0.00,,,0.00,VWS V14.01,2013-07-24 13:33:00,
2013-07-24 15:38:00,80.6,74.2,30.00,SW,232,6.0,12.0,81,0.00,,,0.00,VWS V14.01,2013-07-24 13:38:00,
2013-07-24 15:40:00,81.5,75.1,30.00,WSW,239,7.0,12.0,81,0.00,,,0.00,VWS V14.01,2013-07-24 13:40:00,
2013-07-24 15:43:00,81.5,75.1,30.00,SW,235,7.0,12.0,81,0.00,,,0.00,VWS V14.01,2013-07-24 13:43:00,
2013-07-24 15:48:00,81.4,75.0,30.00,WSW,244,5.0,11.0,81,0.00,,,0.00,VWS V14.01,2013-07-24 13:48:00,
2013-07-24 15:50:00,80.4,74.0,30.00,SW,229,9.0,12.0,81,0.00,,,0.00,VWS V14.01,2013-07-24 13:50:00,
2013-07-24 15:54:00,80.4,74.0,30.00,SW,234,10.0,12.0,81,0.00,,,0.00,VWS V14.01,2013-07-24 13:54:00,
2013-07-24 15:59:00,80.3,74.7,30.00,SW,232,9.0,12.0,83,0.00,,,0.00,VWS V14.01,2013-07-24 13:59:00,
2013-07-24 16:00:00,80.5,74.5,30.00,WSW,247,8.0,13.0,82,0.00,,,0.00,VWS V14.01,2013-07-24 14:00:00,
2013-07-24 16:04:00,80.5,74.5,30.00,SW,216,9.0,13.0,82,0.00,,,0.00,VWS V14.01,2013-07-24 14:04:00,
2013-07-24 16:09:00,80.8,74.1,29.99,West,266,12.0,14.0,80,0.00,,,0.00,VWS V14.01,2013-07-24 14:09:00,
2013-07-24 16:10:00,81.4,73.9,30.00,WSW,253,8.0,14.0,78,0.00,,,0.00,VWS V14.01,2013-07-24 14:10:00,
2013-07-24 16:14:00,81.4,73.9,30.00,SW,229,7.0,14.0,78,0.00,,,0.00,VWS V14.01,2013-07-24 14:14:00,
2013-07-24 16:19:00,81.7,73.8,30.00,SW,236,8.0,14.0,77,0.00,,,0.00,VWS V14.01,2013-07-24 14:19:00,
2013-07-24 16:20:00,81.8,73.5,29.99,West,262,8.0,14.0,76,0.00,,,0.00,VWS V14.01,2013-07-24 14:20:00,
2013-07-24 16:24:00,81.9,73.6,29.99,WSW,257,8.0,14.0,76,0.00,,,0.00,VWS V14.01,2013-07-24 14:24:00,
2013-07-24 16:29:00,81.9,73.6,29.99,WSW,249,7.0,12.0,76,0.00,,,0.00,VWS V14.01,2013-07-24 14:29:00,
2013-07-24 16:30:00,82.2,73.9,29.99,West,265,4.0,12.0,76,0.00,,,0.00,VWS V14.01,2013-07-24 14:30:00,
2013-07-24 16:34:00,82.2,73.9,29.99,West,261,5.0,12.0,76,0.00,,,0.00,VWS V14.01,2013-07-24 14:34:00,
2013-07-24 16:39:00,81.8,72.7,29.99,West,267,11.0,13.0,74,0.00,,,0.00,VWS V14.01,2013-07-24 14:39:00,
2013-07-24 16:40:00,82.0,72.9,29.99,West,268,11.0,13.0,74,0.00,,,0.00,VWS V14.01,2013-07-24 14:40:00,
2013-07-24 16:44:00,82.0,72.9,29.99,SW,235,9.0,13.0,74,0.00,,,0.00,VWS V14.01,2013-07-24 14:44:00,
2013-07-24 16:49:00,81.8,73.1,29.99,WSW,253,9.0,14.0,75,0.00,,,0.00,VWS V14.01,2013-07-24 14:49:00,
2013-07-24 16:50:00,81.8,73.1,29.99,WSW,257,10.0,15.0,75,0.00,,,0.00,VWS V14.01,2013-07-24 14:50:00,
2013-07-24 16:54:00,81.8,73.5,29.99,WSW,258,7.0,15.0,76,0.00,,,0.00,VWS V14.01,2013-07-24 14:54:00,
2013-07-24 16:59:00,82.0,73.3,29.99,WSW,245,2.0,12.0,75,0.00,,,0.00,VWS V14.01,2013-07-24 14:59:00,
2013-07-24 17:00:00,81.9,73.2,29.99,SW,228,8.0,12.0,75,0.00,,,0.00,VWS V14.01,2013-07-24 15:00:00,
2013-07-24 17:04:00,81.9,73.2,29.99,West,269,8.0,12.0,75,0.00,,,0.00,VWS V14.01,2013-07-24 15:04:00,
2013-07-24 17:09:00,81.6,73.3,29.99,West,260,11.0,12.0,76,0.00,,,0.00,VWS V14.01,2013-07-24 15:09:00,
2013-07-24 17:10:00,81.4,73.5,29.99,WSW,257,4.0,13.0,77,0.00,,,0.00,VWS V14.01,2013-07-24 15:10:00,
2013-07-24 17:14:00,81.4,73.5,29.99,WSW,257,4.0,13.0,77,0.00,,,0.00,VWS V14.01,2013-07-24 15:14:00,
2013-07-24 17:19:00,81.5,73.6,29.99,WSW,247,6.0,11.0,77,0.00,,,0.00,VWS V14.01,2013-07-24 15:19:00,
2013-07-24 17:20:00,81.4,73.5,29.98,West,263,11.0,11.0,77,0.00,,,0.00,VWS V14.01,2013-07-24 15:20:00,
2013-07-24 17:24:00,81.4,73.5,29.99,West,263,11.0,11.0,77,0.00,,,0.00,VWS V14.01,2013-07-24 15:24:00,
2013-07-24 17:29:00,81.7,73.8,29.98,SW,236,10.0,11.0,77,0.00,,,0.00,VWS V14.01,2013-07-24 15:29:00,
2013-07-24 17:30:00,82.0,73.7,29.98,WSW,255,11.0,11.0,76,0.00,,,0.00,VWS V14.01,2013-07-24 15:30:00,
2013-07-24 17:34:00,82.0,73.7,29.98,WSW,255,11.0,11.0,76,0.00,,,0.00,VWS V14.01,2013-07-24 15:34:00,
2013-07-24 17:39:00,81.6,73.7,29.98,WSW,238,9.0,11.0,77,0.00,,,0.00,VWS V14.01,2013-07-24 15:39:00,
2013-07-24 17:40:00,81.5,73.6,29.98,West,259,11.0,13.0,77,0.00,,,0.00,VWS V14.01,2013-07-24 15:40:00,
2013-07-24 17:44:00,81.5,73.6,29.98,West,259,11.0,13.0,77,0.00,,,0.00,VWS V14.01,2013-07-24 15:44:00,
2013-07-24 17:49:00,81.4,73.9,29.98,WNW,284,8.0,13.0,78,0.00,,,0.00,VWS V14.01,2013-07-24 15:49:00,
2013-07-24 17:50:00,81.3,73.8,29.98,WSW,253,4.0,15.0,78,0.00,,,0.00,VWS V14.01,2013-07-24 15:50:00,
2013-07-24 17:54:00,81.3,73.8,29.98,WSW,253,4.0,15.0,78,0.00,,,0.00,VWS V14.01,2013-07-24 15:54:00,
2013-07-24 17:59:00,81.5,74.0,29.98,WNW,288,5.0,11.0,78,0.00,,,0.00,VWS V14.01,2013-07-24 15:59:00,
2013-07-24 18:00:00,81.2,74.1,29.98,WNW,294,6.0,14.0,79,0.00,,,0.00,VWS V14.01,2013-07-24 16:00:00,
2013-07-24 18:04:00,81.2,74.1,29.98,SW,234,10.0,14.0,79,0.00,,,0.00,VWS V14.01,2013-07-24 16:04:00,
2013-07-24 18:09:00,81.5,74.4,29.98,WSW,243,8.0,13.0,79,0.00,,,0.00,VWS V14.01,2013-07-24 16:09:00,
2013-07-24 18:10:00,81.4,74.3,29.98,WNW,283,5.0,13.0,79,0.00,,,0.00,VWS V14.01,2013-07-24 16:10:00,
2013-07-24 18:14:00,81.4,74.3,29.98,WNW,283,5.0,13.0,79,0.00,,,0.00,VWS V14.01,2013-07-24 16:14:00,
2013-07-24 18:19:00,81.3,73.8,29.98,West,267,11.0,15.0,78,0.00,,,0.00,VWS V14.01,2013-07-24 16:19:00,
2013-07-24 18:20:00,81.0,74.2,29.98,WNW,293,7.0,15.0,80,0.00,,,0.00,VWS V14.01,2013-07-24 16:20:00,
2013-07-24 18:24:00,81.0,74.2,29.98,WNW,293,7.0,15.0,80,0.00,,,0.00,VWS V14.01,2013-07-24 16:24:00,
2013-07-24 18:29:00,80.8,74.1,29.98,WNW,290,9.0,13.0,80,0.00,,,0.00,VWS V14.01,2013-07-24 16:29:00,
2013-07-24 18:30:00,81.1,74.3,29.98,WSW,240,6.0,13.0,80,0.00,,,0.00,VWS V14.01,2013-07-24 16:30:00,
2013-07-24 18:34:00,81.1,74.3,29.98,WSW,240,6.0,13.0,80,0.00,,,0.00,VWS V14.01,2013-07-24 16:34:00,
2013-07-24 18:39:00,80.6,73.9,29.98,WNW,303,11.0,15.0,80,0.00,,,0.00,VWS V14.01,2013-07-24 16:39:00,
2013-07-24 18:40:00,80.6,74.2,29.98,WNW,290,11.0,15.0,81,0.00,,,0.00,VWS V14.01,2013-07-24 16:40:00,
2013-07-24 18:44:00,80.6,74.2,29.98,WNW,290,11.0,15.0,81,0.00,,,0.00,VWS V14.01,2013-07-24 16:44:00,
2013-07-24 18:49:00,80.7,74.0,29.98,West,273,9.0,11.0,80,0.00,,,0.00,VWS V14.01,2013-07-24 16:49:00,
2013-07-24 18:50:00,80.0,73.7,29.98,WNW,290,10.0,13.0,81,0.00,,,0.00,VWS V14.01,2013-07-24 16:50:00,
2013-07-24 18:54:00,80.0,73.7,29.98,WNW,290,10.0,13.0,81,0.00,,,0.00,VWS V14.01,2013-07-24 16:54:00,
2013-07-24 18:59:00,79.9,73.9,29.98,West,279,9.0,14.0,82,0.00,,,0.00,VWS V14.01,2013-07-24 16:59:00,
2013-07-24 19:00:00,79.9,74.3,29.98,West,273,6.0,14.0,83,0.00,,,0.00,VWS V14.01,2013-07-24 17:00:00,
2013-07-24 19:04:00,79.9,74.3,29.98,West,273,6.0,14.0,83,0.00,,,0.00,VWS V14.01,2013-07-24 17:04:00,
2013-07-24 19:09:00,80.3,74.3,29.98,West,269,10.0,12.0,82,0.00,,,0.00,VWS V14.01,2013-07-24 17:09:00,
2013-07-24 19:10:00,80.3,73.9,29.98,WNW,302,4.0,12.0,81,0.00,,,0.00,VWS V14.01,2013-07-24 17:10:00,
2013-07-24 19:14:00,80.3,73.9,29.98,WNW,302,5.0,5.0,81,0.00,,,0.00,VWS V14.01,2013-07-24 17:14:00,
2013-07-24 19:19:00,80.0,73.7,29.98,NNW,333,8.0,11.0,81,0.00,,,0.00,VWS V14.01,2013-07-24 17:19:00,
2013-07-24 19:20:00,79.9,73.6,29.98,West,279,10.0,11.0,81,0.00,,,0.00,VWS V14.01,2013-07-24 17:20:00,
2013-07-24 19:24:00,79.9,73.6,29.98,WNW,282,13.0,13.0,81,0.00,,,0.00,VWS V14.01,2013-07-24 17:24:00,
2013-07-24 19:29:00,79.7,73.4,29.98,West,276,5.0,13.0,81,0.00,,,0.00,VWS V14.01,2013-07-24 17:29:00,
2013-07-24 19:30:00,79.9,73.6,29.99,West,281,3.0,13.0,81,0.00,,,0.00,VWS V14.01,2013-07-24 17:30:00,
2013-07-24 19:34:00,79.9,73.6,29.99,West,278,9.0,9.0,81,0.00,,,0.00,VWS V14.01,2013-07-24 17:34:00,
2013-07-24 19:39:00,79.9,73.6,29.99,WSW,243,2.0,10.0,81,0.00,,,0.00,VWS V14.01,2013-07-24 17:39:00,
2013-07-24 19:40:00,80.0,73.7,29.99,West,275,6.0,10.0,81,0.00,,,0.00,VWS V14.01,2013-07-24 17:40:00,
2013-07-24 19:44:00,80.0,73.7,29.98,West,278,7.0,7.0,81,0.00,,,0.00,VWS V14.01,2013-07-24 17:44:00,
2013-07-24 19:49:00,79.7,73.4,29.99,West,270,5.0,10.0,81,0.00,,,0.00,VWS V14.01,2013-07-24 17:49:00,
2013-07-24 19:50:00,79.5,73.2,29.98,WNW,286,7.0,10.0,81,0.00,,,0.00,VWS V14.01,2013-07-24 17:50:00,
2013-07-24 19:54:00,79.5,73.2,29.99,WNW,296,8.0,10.0,81,0.00,,,0.00,VWS V14.01,2013-07-24 17:54:00,
2013-07-24 19:59:00,79.5,73.5,29.99,WNW,294,3.0,8.0,82,0.00,,,0.00,VWS V14.01,2013-07-24 17:59:00,
2013-07-24 20:00:00,79.5,73.5,29.99,WNW,289,2.0,8.0,82,0.00,,,0.00,VWS V14.01,2013-07-24 18:00:00,
2013-07-24 20:04:00,79.5,73.5,29.99,WNW,289,2.0,8.0,82,0.00,,,0.00,VWS V14.01,2013-07-24 18:04:00,
2013-07-24 20:09:00,79.3,73.3,29.99,NW,318,1.0,5.0,82,0.00,,,0.00,VWS V14.01,2013-07-24 18:09:00,
2013-07-24 20:10:00,79.2,73.2,29.99,NW,310,4.0,9.0,82,0.00,,,0.00,VWS V14.01,2013-07-24 18:10:00,
2013-07-24 20:14:00,79.2,73.2,29.99,NW,312,5.0,5.0,82,0.00,,,0.00,VWS V14.01,2013-07-24 18:14:00,
2013-07-24 20:19:00,79.1,73.5,29.99,WNW,298,1.0,6.0,83,0.00,,,0.00,VWS V14.01,2013-07-24 18:19:00,
2013-07-24 20:20:00,78.8,73.2,29.99,NW,309,2.0,6.0,83,0.00,,,0.00,VWS V14.01,2013-07-24 18:20:00,
2013-07-24 20:24:00,78.8,73.2,29.99,NW,309,2.0,6.0,83,0.00,,,0.00,VWS V14.01,2013-07-24 18:24:00,
2013-07-24 20:29:00,78.6,73.0,29.99,NW,310,3.0,5.0,83,0.00,,,0.00,VWS V14.01,2013-07-24 18:29:00,
2013-07-24 20:30:00,78.5,73.3,29.99,NNW,335,2.0,6.0,84,0.00,,,0.00,VWS V14.01,2013-07-24 18:30:00,
2013-07-24 20:34:00,78.5,73.3,29.99,NNW,335,1.0,2.0,84,0.00,,,0.00,VWS V14.01,2013-07-24 18:34:00,
2013-07-24 20:39:00,78.5,73.3,29.99,NNW,335,1.0,2.0,84,0.00,,,0.00,VWS V14.01,2013-07-24 18:39:00,
2013-07-24 20:40:00,78.4,73.2,30.00,NNW,335,0.0,3.0,84,0.00,,,0.00,VWS V14.01,2013-07-24 18:40:00,
2013-07-24 20:44:00,78.4,73.2,30.00,NNW,335,0.0,3.0,84,0.00,,,0.00,VWS V14.01,2013-07-24 18:44:00,
2013-07-24 20:49:00,78.3,73.1,30.00,NNW,335,1.0,2.0,84,0.00,,,0.00,VWS V14.01,2013-07-24 18:49:00,
2013-07-24 20:50:00,78.3,73.4,30.00,NNW,335,1.0,4.0,85,0.00,,,0.00,VWS V14.01,2013-07-24 18:50:00,
2013-07-24 20:54:00,78.2,73.3,30.00,NNW,335,1.0,1.0,85,0.00,,,0.00,VWS V14.01,2013-07-24 18:54:00,
2013-07-24 20:59:00,78.1,73.2,30.00,NNW,335,0.0,2.0,85,0.00,,,0.00,VWS V14.01,2013-07-24 18:59:00,
2013-07-24 21:00:00,78.1,73.2,30.00,NNW,335,0.0,2.0,85,0.00,,,0.00,VWS V14.01,2013-07-24 19:00:00,
2013-07-24 21:04:00,78.1,73.2,30.00,NNW,335,0.0,2.0,85,0.00,,,0.00,VWS V14.01,2013-07-24 19:04:00,
2013-07-24 21:09:00,78.1,73.2,30.00,NNW,335,0.0,1.0,85,0.00,,,0.00,VWS V14.01,2013-07-24 19:09:00,
2013-07-24 21:10:00,78.1,73.2,30.00,NNW,335,0.0,1.0,85,0.00,,,0.00,VWS V14.01,2013-07-24 19:10:00,
2013-07-24 21:14:00,78.1,73.2,30.00,NNW,335,0.0,0.0,85,0.00,,,0.00,VWS V14.01,2013-07-24 19:14:00,
2013-07-24 21:19:00,78.1,73.2,30.00,NNW,335,0.0,0.0,85,0.00,,,0.00,VWS V14.01,2013-07-24 19:19:00,
2013-07-24 21:20:00,78.0,73.1,30.00,NNW,335,0.0,1.0,85,0.00,,,0.00,VWS V14.01,2013-07-24 19:20:00,
2013-07-24 21:24:00,78.0,73.1,30.00,NNW,335,0.0,0.0,85,0.00,,,0.00,VWS V14.01,2013-07-24 19:24:00,
2013-07-24 21:29:00,78.0,73.1,30.00,NNW,335,0.0,0.0,85,0.00,,,0.00,VWS V14.01,2013-07-24 19:29:00,
2013-07-24 21:30:00,77.9,73.0,30.00,NNW,335,0.0,0.0,85,0.00,,,0.00,VWS V14.01,2013-07-24 19:30:00,
2013-07-24 21:34:00,77.9,73.0,30.00,NNW,335,0.0,0.0,85,0.00,,,0.00,VWS V14.01,2013-07-24 19:34:00,
2013-07-24 21:39:00,77.7,73.2,30.00,NNW,335,0.0,0.0,86,0.00,,,0.00,VWS V14.01,2013-07-24 19:39:00,
2013-07-24 21:40:00,77.7,73.2,30.00,NNW,335,0.0,0.0,86,0.00,,,0.00,VWS V14.01,2013-07-24 19:40:00,
2013-07-24 21:44:00,77.7,73.2,30.00,NNW,335,0.0,0.0,86,0.00,,,0.00,VWS V14.01,2013-07-24 19:44:00,
2013-07-24 21:49:00,77.7,73.2,30.00,NNW,335,0.0,0.0,86,0.00,,,0.00,VWS V14.01,2013-07-24 19:49:00,
2013-07-24 21:50:00,77.6,73.1,30.00,NNW,335,0.0,1.0,86,0.00,,,0.00,VWS V14.01,2013-07-24 19:50:00,
2013-07-24 21:54:00,77.6,73.1,30.00,NNW,335,0.0,0.0,86,0.00,,,0.00,VWS V14.01,2013-07-24 19:54:00,
2013-07-24 21:59:00,77.5,73.0,30.00,NNW,335,0.0,1.0,86,0.00,,,0.00,VWS V14.01,2013-07-24 19:59:00,
2013-07-24 22:00:00,77.4,73.2,30.00,NNW,335,0.0,1.0,87,0.00,,,0.00,VWS V14.01,2013-07-24 20:00:00,
2013-07-24 22:04:00,77.4,73.2,30.00,NNW,335,0.0,1.0,87,0.00,,,0.00,VWS V14.01,2013-07-24 20:04:00,
2013-07-24 22:09:00,77.3,73.1,30.00,NNW,335,0.0,1.0,87,0.00,,,0.00,VWS V14.01,2013-07-24 20:09:00,
2013-07-24 22:10:00,77.2,73.0,30.00,NNW,335,1.0,1.0,87,0.00,,,0.00,VWS V14.01,2013-07-24 20:10:00,
2013-07-24 22:14:00,77.2,73.0,30.00,NNW,335,1.0,1.0,87,0.00,,,0.00,VWS V14.01,2013-07-24 20:14:00,
2013-07-24 22:19:00,77.1,72.9,30.00,NNW,335,0.0,1.0,87,0.00,,,0.00,VWS V14.01,2013-07-24 20:19:00,
2013-07-24 22:20:00,77.2,73.0,30.00,NNW,335,0.0,1.0,87,0.00,,,0.00,VWS V14.01,2013-07-24 20:20:00,
2013-07-24 22:24:00,77.2,73.0,30.00,NNW,335,0.0,1.0,87,0.00,,,0.00,VWS V14.01,2013-07-24 20:24:00,
2013-07-24 22:29:00,77.1,72.9,30.00,NNW,335,0.0,0.0,87,0.00,,,0.00,VWS V14.01,2013-07-24 20:29:00,
2013-07-24 22:30:00,77.0,72.8,30.00,NNW,335,0.0,1.0,87,0.00,,,0.00,VWS V14.01,2013-07-24 20:30:00,
2013-07-24 22:34:00,77.0,72.8,30.00,NNW,335,0.0,0.0,87,0.00,,,0.00,VWS V14.01,2013-07-24 20:34:00,
2013-07-24 22:39:00,76.9,73.1,30.01,NNW,335,0.0,1.0,88,0.00,,,0.00,VWS V14.01,2013-07-24 20:39:00,
2013-07-24 22:40:00,76.8,73.0,30.00,NNW,335,0.0,1.0,88,0.00,,,0.00,VWS V14.01,2013-07-24 20:40:00,
2013-07-24 22:44:00,76.7,72.9,30.00,NNW,335,0.0,0.0,88,0.00,,,0.00,VWS V14.01,2013-07-24 20:44:00,
2013-07-24 22:49:00,76.6,72.8,30.00,NNW,335,1.0,2.0,88,0.00,,,0.00,VWS V14.01,2013-07-24 20:49:00,
2013-07-24 22:50:00,76.7,72.9,30.01,NNW,335,0.0,2.0,88,0.00,,,0.00,VWS V14.01,2013-07-24 20:50:00,
2013-07-24 22:54:00,76.7,72.9,30.01,NNW,335,0.0,0.0,88,0.00,,,0.00,VWS V14.01,2013-07-24 20:54:00,
2013-07-24 22:59:00,76.7,72.9,30.01,NNW,335,0.0,0.0,88,0.00,,,0.00,VWS V14.01,2013-07-24 20:59:00,
2013-07-24 23:00:00,76.5,72.7,30.00,NNW,335,1.0,1.0,88,0.00,,,0.00,VWS V14.01,2013-07-24 21:00:00,
2013-07-24 23:04:00,76.5,72.7,30.00,NNW,335,1.0,1.0,88,0.00,,,0.00,VWS V14.01,2013-07-24 21:04:00,
2013-07-24 23:09:00,76.4,72.6,30.01,NNW,335,1.0,2.0,88,0.00,,,0.00,VWS V14.01,2013-07-24 21:09:00,
2013-07-24 23:10:00,76.3,72.8,30.01,NNW,335,1.0,2.0,89,0.00,,,0.00,VWS V14.01,2013-07-24 21:10:00,
2013-07-24 23:14:00,76.3,72.8,30.01,NNW,335,1.0,1.0,89,0.00,,,0.00,VWS V14.01,2013-07-24 21:14:00,
2013-07-24 23:19:00,76.4,72.9,30.01,NNW,335,0.0,2.0,89,0.00,,,0.00,VWS V14.01,2013-07-24 21:19:00,
2013-07-24 23:20:00,76.5,73.0,30.01,NNW,335,0.0,2.0,89,0.00,,,0.00,VWS V14.01,2013-07-24 21:20:00,
2013-07-24 23:24:00,76.4,72.9,30.01,NNW,335,0.0,0.0,89,0.00,,,0.00,VWS V14.01,2013-07-24 21:24:00,
2013-07-24 23:29:00,76.4,72.9,30.01,NNW,335,0.0,1.0,89,0.00,,,0.00,VWS V14.01,2013-07-24 21:29:00,
2013-07-24 23:30:00,76.4,72.9,30.01,NNW,335,0.0,1.0,89,0.00,,,0.00,VWS V14.01,2013-07-24 21:30:00,
2013-07-24 23:34:00,76.4,72.9,30.01,NNW,335,0.0,1.0,89,0.00,,,0.00,VWS V14.01,2013-07-24 21:34:00,
2013-07-24 23:39:00,76.4,72.9,30.01,NNW,335,0.0,0.0,89,0.00,,,0.00,VWS V14.01,2013-07-24 21:39:00,
2013-07-24 23:40:00,76.4,72.9,30.01,NNW,335,0.0,0.0,89,0.00,,,0.00,VWS V14.01,2013-07-24 21:40:00,
2013-07-24 23:44:00,76.4,72.9,30.01,NNW,335,0.0,0.0,89,0.00,,,0.00,VWS V14.01,2013-07-24 21:44:00,
2013-07-24 23:49:00,76.4,72.9,30.01,NNW,335,0.0,1.0,89,0.00,,,0.00,VWS V14.01,2013-07-24 21:49:00,
2013-07-24 23:50:00,76.3,72.8,30.02,NNW,335,0.0,1.0,89,0.00,,,0.00,VWS V14.01,2013-07-24 21:50:00,
2013-07-24 23:54:00,76.3,72.8,30.01,NNW,335,0.0,0.0,89,0.00,,,0.00,VWS V14.01,2013-07-24 21:54:00,
2013-07-24 23:59:00,76.3,72.8,30.01,NNW,335,0.0,1.0,89,0.00,,,0.00,VWS V14.01,2013-07-24 21:59:00,